This is the latest recevied weather packets stored in our database for station/object AD4CG. If no packets are shown the sender has not sent any weather packets the latest 10 day(s).
| Time | Temp. | Humidity | Pressure | Rain* | Wind** | Luminosity | Snow |
|---|---|---|---|---|---|---|---|
| 1777520338 | 20.56° C | 100% | 1008.5 hPa | 0 mm | - | - | - |
| 1777513414 | 21.11° C | 100% | 1009.1 hPa | 0 mm | - | - | - |
| 1777510646 | 20.56° C | 100% | 1008.5 hPa | 0 mm | - | - | - |
| 1777510020 | 20.56° C | 100% | 1008.5 hPa | 0 mm | - | - | - |
| 1777509394 | 20.56° C | 100% | 1008.5 hPa | 0 mm | - | - | - |
| 1777505940 | 23.33° C | 99% | 1007.8 hPa | 0 mm | - | - | - |
| 1777500109 | 25° C | 81% | 1008.5 hPa | 0 mm | - | - | - |
| 1777496972 | 23.89° C | 88% | 1008.8 hPa | 0 mm | - | - | - |
| 1777495755 | 23.89° C | 95% | 1009.5 hPa | 0 mm | - | - | - |
| 1777495145 | 23.33° C | 100% | 1009.1 hPa | 0 mm | - | - | - |
| 1777494230 | 23.33° C | 100% | 1009.8 hPa | 0 mm | - | - | - |
| 1777487497 | 21.67° C | 100% | 1011.2 hPa | 0 mm | - | - | - |
| 1777486573 | 21.67° C | 100% | 1012.2 hPa | 0 mm | - | - | - |
| 1777486268 | 21.67° C | 100% | 1011.9 hPa | 0 mm | - | - | - |
| 1777485032 | 20.56° C | 100% | 1011.9 hPa | 0 mm | - | - | - |
| 1777484424 | 21.11° C | 100% | 1011.9 hPa | 0 mm | - | - | - |
| 1777484120 | 21.11° C | 100% | 1011.9 hPa | 0 mm | - | - | - |
| 1777483078 | 20.56° C | 100% | 1011.9 hPa | 0 mm | - | - | - |
| 1777481196 | 19.44° C | 100% | 1012.9 hPa | 0 mm | - | - | - |
| 1777479396 | 18.89° C | 100% | 1013.5 hPa | 0 mm | - | - | - |
| 1777479084 | 18.33° C | 100% | 1013.5 hPa | 0 mm | - | - | - |
| 1777478458 | 18.33° C | 100% | 1013.9 hPa | 0 mm | - | - | - |
| 1777477834 | 18.33° C | 100% | 1014.2 hPa | 0 mm | - | - | - |
| 1777476894 | 18.33° C | 100% | 1014.6 hPa | 0 mm | - | - | - |
| 1777475642 | 18.33° C | 100% | 1014.6 hPa | 0 mm | - | - | - |
* Rain latest hour (hover to see other rain measurements)
** Current wind speed in m/s (hover to see current wind gust speed)